Location: ?ejeti?ky
(50.4060°N, 14.9016°E)
Time: 16:47:15
(UTC+00:00)

STARLINK-1333 - Visible Passes

Search period start: 24 June 2021 00:00
Search period end: 04 July 2021 00:00
Orbit: 546 x 548 km, 53.1° (Epoch: 24 June)

Date Brightness Start Highest point End Pass type
(mag) Time Alt. Az. Time Alt. Az. Time Alt. Az.
24 Jun 4.0 00:34:24 22° SSW 00:36:44 48° SSE 00:40:43 10° ENE visible
24 Jun 5.6 22:52:17 14° ESE 22:52:17 14° ESE 22:53:49 10° E visible
25 Jun 3.7 00:27:51 21° SW 00:30:23 58° SSE 00:34:28 10° ENE visible
25 Jun 5.3 22:45:40 18° ESE 22:45:40 18° ESE 22:47:58 10° E visible
26 Jun 3.6 00:21:14 19° SW 00:24:04 69° SSE 00:28:11 10° ENE visible
26 Jun 4.2 01:59:36 10° W 02:03:42 60° N 02:07:48 10° ENE visible
26 Jun 4.9 22:38:57 23° SE 22:38:57 23° SE 22:41:56 10° E visible
27 Jun 3.5 00:14:30 16° WSW 00:17:45 81° SSE 00:21:54 10° ENE visible
27 Jun 4.2 01:53:22 10° W 01:57:28 59° N 02:01:33 10° ENE visible
27 Jun 4.5 22:32:06 28° SE 22:32:15 28° SE 22:35:49 10° E visible
28 Jun 3.6 00:07:38 12° WSW 00:11:28 88° NNW 00:15:37 10° ENE visible
28 Jun 4.3 01:47:07 10° W 01:51:13 58° N 01:55:18 10° E visible
28 Jun 4.2 22:25:02 32° S 22:25:51 35° SE 22:29:38 10° ENE visible
29 Jun 3.7 00:01:02 10° WSW 00:05:11 79° NNW 00:09:20 10° ENE visible
29 Jun 4.3 01:40:52 10° WNW 01:44:58 59° N 01:49:04 10° E visible
29 Jun 3.9 22:17:36 26° SSW 22:19:28 43° SSE 22:23:25 10° ENE visible
29 Jun 3.8 23:54:46 10° W 23:58:54 71° NNW 00:03:02 10° ENE visible
30 Jun 4.2 01:34:36 10° WNW 01:38:43 61° N 01:42:49 10° E visible
30 Jun 5.4 20:33:54 13° SE 20:34:21 13° SE 20:36:12 10° ESE visible
30 Jun 3.7 22:09:17 11° SW 22:13:07 52° SSE 22:17:10 10° ENE visible
30 Jun 4.0 23:48:31 10° W 23:52:38 66° N 23:56:46 10° ENE visible
01 Jul 4.1 01:28:20 10° WNW 01:32:27 65° N 01:36:35 10° E visible
01 Jul 5.1 20:25:16 10° S 20:27:52 16° SE 20:30:29 10° E visible
01 Jul 3.5 22:02:41 10° SW 22:06:47 63° SSE 22:10:53 10° ENE visible
01 Jul 4.1 23:42:16 10° W 23:46:23 62° N 23:50:29 10° ENE visible
02 Jul 3.9 01:22:04 10° WNW 01:26:12 70° NNE 01:30:20 10° E visible
02 Jul 4.9 20:18:20 10° S 20:21:25 21° SE 20:24:31 10° E visible
02 Jul 3.5 21:56:19 10° WSW 22:00:27 75° SSE 22:04:35 10° ENE visible
02 Jul 4.2 23:36:02 10° W 23:40:07 59° N 23:44:14 10° ENE visible
03 Jul 3.8 01:15:46 10° WNW 01:19:55 78° NNE 01:24:04 10° ESE visible
03 Jul 4.6 20:11:34 10° SSW 20:14:59 25° SE 20:18:25 10° E visible
03 Jul 3.5 21:50:00 10° WSW 21:54:08 87° SSE 21:58:18 10° ENE visible
03 Jul 4.2 23:29:46 10° W 23:33:52 58° N 23:37:58 10° E visible
